STARLINK-3155 (49739 NORAD) Tracking and Keplerian Element Data

This shows tracking and keplerian element data for the satellite.

Feedback or suggestion? Click here.




ElementValue
Catalog49739
NameSTARLINK-3155
Epoch Orbit130
Epoch Day140.58334491
Epoch Year2022
RAAN275.0612
Inclination53.2138
Eccentricity0.0002241
Argument of Perigee29.0265
Mean Anonmoly212.4493
Mean Motion15.08863333
Decay Rate-0.000327
L11 49739U 21115R 22140.58334491 -.00032700 00000+0 -20444-2 0 9997
L22 49739 53.2138 275.0612 0002241 29.0265 212.4493 15.08863333 1301

Live tracking and technical data element details for STARLINK-3155 (NORAD 49739). STARLINK-3155 can be tracked NOW for your location showing map with azimuth and elevation plus other details from your city location.

Track the satellite on the map from your city or location and see movement details for azimuth, elevation, latitude, longitude, range, height, and movement on the map or in text.







IsCatalogInMostPopularTable: catalog: 49739, numindb: 20
Update: records affected: 1



GetName: 49739 STARLINK-3155

Hit Count: updated at: Sun, 22 May 2022 03:46:44 GMT